This is the latest recevied weather packets stored in our database for station/object K5NAN. If no packets are shown the sender has not sent any weather packets the latest 10 day(s).
| Time | Temp. | Humidity | Pressure | Rain* | Wind** | Luminosity | Snow |
|---|---|---|---|---|---|---|---|
| 1778090810 | 12.78° C | 91% | 1011.4 hPa | 0 mm | - | 276 W/m² | - |
| 1778090506 | 12.22° C | 91% | 1011.9 hPa | 0 mm | - | 185 W/m² | - |
| 1778090202 | 12.78° C | 91% | 1012 hPa | 1.78 mm | - | 172 W/m² | - |
| 1778089899 | 12.78° C | 91% | 1012.4 hPa | 1.78 mm | - | 272 W/m² | - |
| 1778089597 | 12.78° C | 91% | 1012.3 hPa | 1.27 mm | - | 249 W/m² | - |
| 1778089293 | 12.22° C | 90% | 1012.7 hPa | 1.27 mm | - | 240 W/m² | - |
| 1778088991 | 12.22° C | 90% | 1013 hPa | 0 mm | - | 186 W/m² | - |
| 1778088688 | 12.22° C | 91% | 1013.5 hPa | 0 mm | - | 133 W/m² | - |
| 1778088385 | 12.22° C | 91% | 1013.7 hPa | 0 mm | - | 156 W/m² | - |
| 1778088081 | 12.22° C | 91% | 1013.4 hPa | 0 mm | - | 164 W/m² | - |
| 1778087779 | 12.22° C | 91% | 1012.9 hPa | 0 mm | - | 126 W/m² | - |
| 1778087476 | 12.22° C | 91% | 1012.8 hPa | 0 mm | - | 130 W/m² | - |
| 1778087174 | 12.22° C | 91% | 1013 hPa | 0 mm | - | 178 W/m² | - |
| 1778086871 | 11.67° C | 91% | 1013.1 hPa | 0 mm | - | 121 W/m² | - |
| 1778086569 | 12.22° C | 91% | 1013.3 hPa | 0 mm | - | 141 W/m² | - |
| 1778086265 | 11.67° C | 91% | 1013.1 hPa | 0 mm | - | 177 W/m² | - |
| 1778085963 | 12.22° C | 91% | 1013.3 hPa | 0 mm | - | 176 W/m² | - |
| 1778085660 | 12.22° C | 92% | 1013.5 hPa | 0 mm | - | 209 W/m² | - |
| 1778085355 | 12.22° C | 92% | 1013.4 hPa | 0 mm | - | 282 W/m² | - |
| 1778085052 | 11.67° C | 92% | 1013.3 hPa | 0 mm | - | 302 W/m² | - |
| 1778084748 | 11.67° C | 92% | 1012.4 hPa | 0 mm | - | 310 W/m² | - |
| 1778084445 | 11.67° C | 92% | 1012.5 hPa | 0 mm | - | 209 W/m² | - |
| 1778084143 | 11.67° C | 91% | 1013.1 hPa | 1.78 mm | - | 321 W/m² | - |
| 1778083839 | 11.11° C | 91% | 1013.6 hPa | 3.56 mm | - | 342 W/m² | - |
| 1778083537 | 11.11° C | 89% | 1013.9 hPa | 6.1 mm | - | 167 W/m² | - |
* Rain latest hour (hover to see other rain measurements)
** Current wind speed in m/s (hover to see current wind gust speed)